User: anonymous   Login
Location: Limoges
(45.8354°N, 1.2645°E)
Time: 10:00:47
(UTC+01:00)
Language:

Transit 4A - Orbit

View from above orbital plane
View from above orbital plane
View from above satellite
View from above satellite

Ground track
Ground track

The orbit data is extracted from the following two-line orbital elements,

1 00116U 61015A   24055.57872002  .00000121  00000-0  15153-3 0  9990
2 00116  66.8099 154.6010 0071619 149.0043 211.5293 13.92003271179277
Epoch (UTC): 24 February 2024 13:53:21
Eccentricity: 0.0071619
inclination: 66.8099°
perigee height: 869 km
apogee height: 974 km
right ascension of ascending node: 154.6010°
argument of perigee: 149.0043°
revolutions per day: 13.92003271
mean anomaly at epoch: 211.5293°
orbit number at epoch: 17927

The dashed part of the orbit path shows where the satellite is in the earth's shadow,  

DLR